This is the latest recevied weather packets stored in our database for station/object KA1AL. If no packets are shown the sender has not sent any weather packets the latest 10 day(s).
| Time | Temp. | Humidity | Pressure | Rain* | Wind** | Luminosity | Snow |
|---|---|---|---|---|---|---|---|
| 1777912368 | 7.78° C | 90% | 1004.2 hPa | 0 mm | - | 86 W/m² | - |
| 1777912064 | 7.78° C | 91% | 1004 hPa | 0 mm | - | 94 W/m² | - |
| 1777911760 | 8.33° C | 91% | 1004.1 hPa | 0 mm | - | 137 W/m² | - |
| 1777911457 | 7.78° C | 93% | 1004.4 hPa | 1.27 mm | - | 265 W/m² | - |
| 1777911154 | 7.78° C | 90% | 1004.5 hPa | 1.27 mm | - | 229 W/m² | - |
| 1777910851 | 7.78° C | 89% | 1004.2 hPa | 1.27 mm | - | 144 W/m² | - |
| 1777910548 | 8.33° C | 87% | 1004.2 hPa | 0 mm | - | 128 W/m² | - |
| 1777910245 | 8.33° C | 83% | 1004.2 hPa | 0 mm | - | 129 W/m² | - |
| 1777909942 | 9.44° C | 78% | 1004.2 hPa | 0 mm | - | 108 W/m² | - |
| 1777909639 | 9.44° C | 75% | 1003.8 hPa | 0 mm | - | 116 W/m² | - |
| 1777909336 | 9.44° C | 74% | 1003.6 hPa | 0 mm | - | 72 W/m² | - |
| 1777909034 | 10° C | 72% | 1003.8 hPa | 0 mm | - | 131 W/m² | - |
| 1777908731 | 10° C | 71% | 1003.5 hPa | 0 mm | - | 176 W/m² | - |
| 1777908428 | 10° C | 72% | 1003.7 hPa | 0 mm | - | 222 W/m² | - |
| 1777908125 | 9.44° C | 72% | 1003.8 hPa | 0 mm | - | 259 W/m² | - |
| 1777907821 | 10° C | 72% | 1003.6 hPa | 0 mm | - | 220 W/m² | - |
| 1777907516 | 9.44° C | 72% | 1004 hPa | 0 mm | - | 310 W/m² | - |
| 1777907213 | 9.44° C | 71% | 1004 hPa | 0 mm | - | 262 W/m² | - |
| 1777906910 | 10° C | 70% | 1004.1 hPa | 0 mm | - | 364 W/m² | - |
| 1777906607 | 9.44° C | 72% | 1004.1 hPa | 0 mm | - | 317 W/m² | - |
| 1777906303 | 10° C | 72% | 1004.1 hPa | 0 mm | - | 336 W/m² | - |
| 1777906000 | 9.44° C | 71% | 1004.2 hPa | 0 mm | - | 298 W/m² | - |
| 1777905696 | 10° C | 70% | 1004.7 hPa | 0 mm | - | 416 W/m² | - |
| 1777905392 | 10° C | 70% | 1004.5 hPa | 0 mm | - | 718 W/m² | - |
| 1777905090 | 9.44° C | 69% | 1004.2 hPa | 0 mm | - | 503 W/m² | - |
* Rain latest hour (hover to see other rain measurements)
** Current wind speed in m/s (hover to see current wind gust speed)